Guam Agana, GU

1:50 AM ChST on December 09, 2019 (GMT +1000)
Guam International

Weather History for PGUM - August, 2019

Change the Weather History Date:

Thursday, August 8, 2019

  Actual Average Record
Temperature  
Mean Temperature 82 °F -  
Max Temperature 88 °F 84 °F 90 °F (1997)
Min Temperature 77 °F 75 °F 72 °F (1996)
Cooling Degree Days 18    
Growing Degree Days 32 (Base 50)    
Moisture  
Dew Point 76 °F    
Average Humidity 83    
Maximum Humidity 91    
Minimum Humidity 67    
Precipitation  
Precipitation 0.02 in - - ()
Sea Level Pressure  
Sea Level Pressure 29.79 in    
Wind  
Wind Speed 5 mph (South)    
Max Wind Speed 10 mph    
Max Gust Speed -    
Visibility 10 miles    
Events Rain    
Averages and records for this station are not official NWS values.
T = Trace of Precipitation, MM = Missing Value Source: NWS Daily Summary

Daily Weather History Graph

Daily Weather History Graph

Search for Another Location

Airport or City:

Astronomy

Aug. 08, 2019 Rise Set
Actual Time 6:06 AM ChST 6:46 PM ChST
Civil Twilight 5:44 AM ChST 7:08 PM ChST
Nautical Twilight 5:18 AM ChST 7:34 PM ChST
Astronomical Twilight 4:51 AM ChST 8:00 PM ChST
Moon 12:44 PM ChST No Moon Set
Length of Visible Light 13h 23m
Length of Day
12h 39m
First Quarter, 54% of the Moon is Illuminated
Aug 8
First Quarter
Aug 15
Full
Aug 24
Last Quarter
Aug 30
New
Sep 6
First Quarter

Hourly Weather History & Observations

Time (ChST) Temp. Heat Index Dew Point Humidity Pressure Visibility Wind Dir Wind Speed Gust Speed Precip Events Conditions
12:54 AM 79.0 °F - 73.9 °F 84% 29.78 in 10.0 mi SE 3.5 mph - N/A   Clear
1:54 AM 79.0 °F - 75.0 °F 88% 29.76 in 10.0 mi SE 3.5 mph - N/A   Partly Cloudy
2:54 AM 78.1 °F - 75.0 °F 90% 29.73 in 10.0 mi SSE 4.6 mph - N/A   Clear
3:54 AM 79.0 °F - 75.9 °F 90% 29.74 in 9.0 mi South 4.6 mph - N/A   Clear
4:54 AM 78.1 °F - 75.0 °F 90% 29.77 in 10.0 mi Calm Calm - N/A   Clear
5:54 AM 79.0 °F - 75.0 °F 88% 29.77 in 10.0 mi SSE 4.6 mph - N/A   Scattered Clouds
6:54 AM 79.0 °F - 75.9 °F 90% 29.78 in 10.0 mi South 3.5 mph - N/A   Partly Cloudy
7:54 AM 81.0 °F 87.9 °F 77.0 °F 88% 29.81 in 10.0 mi South 3.5 mph - N/A   Clear
8:54 AM 82.0 °F 90.2 °F 77.0 °F 85% 29.82 in 10.0 mi SSW 4.6 mph - N/A   Clear
9:54 AM 84.0 °F 92.6 °F 75.9 °F 76% 29.81 in 10.0 mi SSW 4.6 mph - N/A   Clear
10:54 AM 84.9 °F 94.1 °F 75.9 °F 74% 29.82 in 10.0 mi South 8.1 mph - N/A   Partly Cloudy
11:54 AM 84.9 °F 94.1 °F 75.9 °F 74% 29.80 in 10.0 mi SW 6.9 mph - N/A   Scattered Clouds
12:54 PM 88.0 °F 98.5 °F 75.9 °F 67% 29.78 in 10.0 mi WSW 5.8 mph - N/A   Scattered Clouds
1:42 PM 84.9 °F 95.3 °F 77.0 °F 77% 29.78 in 10.0 mi South 6.9 mph - N/A   Mostly Cloudy
1:54 PM 84.0 °F 93.7 °F 77.0 °F 79% 29.76 in 10.0 mi South 8.1 mph - N/A   Overcast
2:49 PM 84.2 °F 94.1 °F 77.0 °F 79% 29.77 in 10.0 mi South 10.4 mph - N/A   Scattered Clouds
2:54 PM 84.0 °F 93.7 °F 77.0 °F 79% 29.74 in 10.0 mi SSE 9.2 mph - N/A   Scattered Clouds
3:54 PM 84.0 °F 93.7 °F 77.0 °F 79% 29.76 in 10.0 mi South 10.4 mph - N/A   Mostly Cloudy
4:54 PM 84.0 °F 93.7 °F 77.0 °F 79% 29.76 in 10.0 mi South 10.4 mph - N/A   Scattered Clouds
5:54 PM 82.9 °F 90.8 °F 75.9 °F 79% 29.77 in 10.0 mi South 6.9 mph - N/A   Clear
6:54 PM 82.0 °F 90.2 °F 77.0 °F 85% 29.79 in 10.0 mi South 4.6 mph - N/A   Overcast
7:54 PM 81.0 °F 87.9 °F 77.0 °F 88% 29.80 in 10.0 mi SSW 4.6 mph - 0.00 in   Clear
8:54 PM 80.1 °F 85.8 °F 77.0 °F 90% 29.82 in 10.0 mi WSW 3.5 mph - N/A   Clear
9:54 PM 81.0 °F 87.9 °F 77.0 °F 88% 29.84 in 10.0 mi South 3.5 mph - N/A   Clear
10:54 PM 81.0 °F 87.9 °F 77.0 °F 88% 29.84 in 10.0 mi SE 3.5 mph - 0.00 in Rain Light Rain
11:54 PM 81.0 °F 88.6 °F 78.1 °F 91% 29.81 in 10.0 mi SSE 4.6 mph - 0.01 in Rain Light Rain